Starlink 3234

operational
NORAD ID: 50815 Int'l Des: 2022-001 Owner: SPXS Country: US Constellation: starlink
LEOCIRCULAR

About Starlink 3234

Description loading...

Live Position

Loading 3D Globe...

Upcoming Passes

Altitude History

Altitude vs Time

uPlot chart will show altitude changes over time

Two-Line Element Set

1 50815U 22001N 25346.87673349 .00016651 00000-0 10637-2 0 9999
2 50815 53.2139 198.8377 0001459 86.8847 273.2312 15.08776362217305
Epoch: Dec 12, 2025 • Age: 26 hours

Current Status

Altitude 543.5 km
Velocity 7.59 km/s
Sub-Earth Point -12.71°S, 49.46°W
Launch Date Jan 6, 2022
Age 3.9 years
Type internet

Technical Details

Classification Payload
Mass 297.00 kg
Dry Mass 275.00 kg
Total Mass 297.00 kg
Length 0.20 m
Diameter 2.80 m
Span 9.00 m
Shape Box + pan
Manufacturer SPXS
Bus Type Starlink
Phase Status In Orbit
Owner/State SPXS/US

Large Constellations

Loading constellations...